Location: Kosice
(48.7167°N, 21.2500°E)
Time: 00:57:28
(UTC+01:00)

ISS - Pass Details

Date: 30 January 2021
Orbit: 417 x 422 km, 51.6° (Epoch: 06 March)

Event Time Altitude Azimuth Distance (km) Brightness Sun altitude
Rises 17:14:39 0° 280° (W) 2,373 1.3 -7.7°
Reaches altitude 10° 17:16:48 10° 286° (WNW) 1,509 0.0 -8.0°
Maximum altitude 17:20:07 49° 3° (N) 552 -3.3 -8.5°
Enters shadow 17:23:02 13° 78° (ENE) 1,358 -1.9 -9.0°
